BMCB-34 Weather Reports


time (UTC)temp
C
wind
direction
speed
KPH
gust
KPH
rain 1hr
cm
rain 24hr
cm
rain mn
cm
humidity
%
barometer
mb
20260506234042 9 0 0.0 0.0 0.00 0.05 0.00 84 1006.6
20260506234034 9 0 0.0 0.0 0.00 0.05 0.00 83 1006.6
20260506233046 9 0 0.0 0.0 0.00 0.05 0.00 83 1006.6
20260506233038 9 0 0.0 0.0 0.00 0.05 0.00 84 1006.5
20260506231045 9 0 0.0 0.0 0.00 0.05 0.00 84 1006.5
20260506231036 10 0 0.0 0.0 0.00 0.05 0.00 84 1006.4
20260506230117 10 0 0.0 0.0 0.00 0.05 0.00 84 1006.4
20260506230041 10 0 0.0 0.0 0.00 0.05 0.00 83 1006.4
20260506225026 10 0 0.0 0.0 0.00 0.05 0.00 83 1006.4
20260506225021 10 0 0.0 0.0 0.00 0.05 0.00 83 1006.3
20260506224027 10 0 0.0 0.0 0.00 0.05 0.00 83 1006.3
20260506223027 10 0 0.0 0.0 0.00 0.05 0.00 83 1006.3
20260506223020 10 0 0.0 0.0 0.00 0.05 0.00 83 1006.1
20260506222027 10 0 0.0 0.0 0.00 0.05 0.00 83 1006.0
20260506221027 10 0 0.0 0.0 0.00 0.05 0.00 83 1006.0
20260506220033 10 0 0.0 0.0 0.00 0.05 0.00 83 1005.9
20260506215027 10 0 0.0 0.0 0.00 0.05 0.05 83 1005.8
20260506214027 10 0 0.0 0.0 0.00 0.05 0.05 83 1005.8
20260506214022 10 0 0.0 0.0 0.00 0.05 0.05 83 1005.7
20260506213030 10 0 0.0 0.0 0.00 0.05 0.05 83 1005.7
20260506213025 10 0 0.0 0.0 0.00 0.05 0.05 81 1005.6
20260506212027 10 0 0.0 0.0 0.00 0.05 0.05 80 1005.5
20260506211028 10 0 0.0 0.0 0.00 0.05 0.05 80 1005.5
20260506211021 10 0 0.0 0.0 0.00 0.05 0.05 81 1005.5
20260506210025 10 0 0.0 0.0 0.00 0.05 0.05 80 1005.5
20260506205026 10 0 0.0 0.0 0.00 0.05 0.05 78 1005.3
20260506204027 10 0 0.0 0.0 0.00 0.05 0.05 78 1005.3
20260506204024 10 0 0.0 0.0 0.00 0.05 0.05 77 1005.3
20260506203028 10 0 0.0 0.0 0.00 0.05 0.05 78 1005.3
20260506202029 10 0 0.0 0.0 0.00 0.05 0.05 80 1005.1
20260506201027 10 0 0.0 0.0 0.00 0.05 0.05 80 1005.1
20260506201021 10 0 0.0 0.0 0.00 0.05 0.05 81 1005.0
20260506200027 10 0 0.0 0.0 0.00 0.05 0.05 82 1004.9
20260506195031 10 0 0.0 0.0 0.00 0.05 0.05 82 1004.9
20260506195026 10 0 0.0 0.0 0.00 0.05 0.05 83 1004.8
20260506194027 10 0 0.0 0.0 0.00 0.05 0.05 83 1004.6
20260506193027 10 0 0.0 0.0 0.00 0.05 0.05 83 1004.6
20260506193024 11 0 0.0 0.0 0.00 0.05 0.05 80 1004.5
20260506192026 11 0 0.0 0.0 0.00 0.05 0.05 79 1004.5
20260506191026 11 0 0.0 0.0 0.00 0.08 0.05 79 1004.4
20260506190026 11 0 0.0 0.0 0.00 0.08 0.05 78 1004.2
20260506185019 11 0 0.0 0.0 0.00 0.10 0.05 78 1004.1
20260506184026 11 0 0.0 0.0 0.00 0.10 0.05 78 1004.1
20260506184022 11 0 0.0 0.0 0.00 0.10 0.05 78 1004.0
20260506183027 11 0 0.0 0.0 0.00 0.15 0.05 79 1003.8
20260506182026 11 0 0.0 0.0 0.00 0.20 0.05 78 1003.6
20260506181025 11 0 0.0 0.0 0.00 0.33 0.05 78 1003.6
20260506181021 11 0 0.0 0.0 0.00 0.33 0.05 78 1003.5
20260506180027 12 0 0.0 0.0 0.00 0.43 0.05 77 1003.4
20260506175026 12 0 0.0 0.0 0.00 0.58 0.05 76 1003.2
20260506174030 12 0 0.0 0.0 0.00 0.71 0.05 76 1003.2
20260506174026 12 0 0.0 0.0 0.00 0.71 0.05 77 1003.2
20260506173025 12 0 0.0 0.0 0.00 0.81 0.05 77 1003.0
20260506172025 12 0 0.0 0.0 0.00 0.81 0.05 77 1003.0
20260506171025 12 0 0.0 0.0 0.00 0.81 0.05 77 1003.0
20260506170025 12 0 0.0 0.0 0.00 0.81 0.05 78 1002.9
20260506165024 12 0 0.0 0.0 0.00 0.81 0.05 80 1002.9
20260506164025 12 0 0.0 0.0 0.00 0.81 0.05 80 1002.8
20260506163025 12 0 0.0 0.0 0.00 0.81 0.05 79 1002.8
20260506162039 12 0 0.0 0.0 0.00 0.81 0.05 79 1002.8
20260506162028 12 0 0.0 0.0 0.00 0.81 0.05 80 1002.8
20260506161025 12 0 0.0 0.0 0.00 0.81 0.05 80 1002.8
20260506160026 12 0 0.0 0.0 0.00 0.81 0.05 80 1002.8
20260506155026 12 0 0.0 0.0 0.00 0.81 0.05 80 1002.8
20260506154028 12 0 0.0 0.0 0.00 0.81 0.05 81 1002.8
20260506153026 12 0 0.0 0.0 0.00 0.81 0.05 80 1002.8
20260506152025 12 0 0.0 0.0 0.00 0.81 0.05 80 1002.7
20260506151027 12 0 0.0 0.0 0.00 0.81 0.05 81 1002.6
20260506150026 12 0 0.0 0.0 0.00 0.81 0.05 81 1002.4
20260506145027 12 0 0.0 0.0 0.00 0.81 0.05 81 1002.4
20260506145023 12 0 0.0 0.0 0.00 0.81 0.05 82 1002.4
20260506143024 12 0 0.0 0.0 0.00 0.86 0.05 81 1002.2
20260506142026 12 0 0.0 0.0 0.00 0.86 0.05 80 1002.1
20260506141025 12 0 0.0 0.0 0.00 0.86 0.05 81 1002.1
20260506140031 12 0 0.0 0.0 0.00 0.89 0.05 81 1002.1
20260506140025 12 0 0.0 0.0 0.00 0.89 0.05 82 1002.2
20260506135026 12 0 0.0 0.0 0.00 0.89 0.05 84 1002.2
20260506134026 12 0 0.0 0.0 0.00 0.89 0.05 83 1002.3
20260506133026 12 0 0.0 0.0 0.00 0.89 0.05 83 1002.3
20260506132028 12 0 0.0 0.0 0.00 0.91 0.05 83 1002.2
20260506131025 12 0 0.0 0.0 0.00 0.91 0.05 83 1002.1
20260506130026 12 0 0.0 0.0 0.00 0.91 0.05 83 1002.1
20260506125026 12 0 0.0 0.0 0.00 0.94 0.05 84 1002.0
20260506124028 12 0 0.0 0.0 0.00 0.94 0.05 84 1002.0
20260506124025 12 0 0.0 0.0 0.00 0.94 0.05 83 1001.9
20260506123025 12 0 0.0 0.0 0.00 0.94 0.05 83 1001.8
20260506122026 12 0 0.0 0.0 0.00 0.94 0.05 84 1001.7
20260506121038 12 0 0.0 0.0 0.00 0.97 0.05 84 1001.7
20260506121034 12 0 0.0 0.0 0.00 0.97 0.05 85 1001.6
20260506120025 12 0 0.0 0.0 0.00 0.97 0.05 85 1001.5
20260506115025 12 0 0.0 0.0 0.00 0.97 0.05 84 1001.4
20260506114025 12 0 0.0 0.0 0.00 0.99 0.05 84 1001.4
20260506113024 12 0 0.0 0.0 0.00 0.99 0.05 84 1001.3
20260506112023 12 0 0.0 0.0 0.00 0.99 0.05 85 1001.3
20260506111024 12 0 0.0 0.0 0.00 0.99 0.05 85 1001.2
20260506110023 13 0 0.0 0.0 0.00 1.02 0.05 84 1001.2
20260506105025 13 0 0.0 0.0 0.00 1.04 0.05 86 1001.1
20260506104023 12 0 0.0 0.0 0.00 1.04 0.05 86 1001.1
20260506103023 13 0 0.0 0.0 0.00 1.04 0.05 87 1001.0
20260506102024 13 0 0.0 0.0 0.00 1.04 0.05 88 1000.8
20260506101024 12 0 0.0 0.0 0.00 1.04 0.05 88 1000.7
20260506100041 12 0 0.0 0.0 0.05 1.04 0.05 88 1000.7
20260506100034 12 0 0.0 0.0 0.05 1.04 0.05 89 1000.7
20260506094032 12 0 0.0 0.0 0.05 1.04 0.05 92 1000.6
20260506093038 12 0 0.0 0.0 0.05 1.04 0.05 92 1000.6
20260506093031 12 0 0.0 0.0 0.05 1.04 0.05 92 1000.5
20260506092040 12 0 0.0 0.0 0.05 1.04 0.05 92 1000.5
20260506092033 12 0 0.0 0.0 0.05 1.04 0.05 92 1000.4
20260506091040 12 0 0.0 0.0 0.05 1.04 0.05 92 1000.4
20260506091033 12 0 0.0 0.0 0.05 1.04 0.05 91 1000.4
20260506090024 12 0 0.0 0.0 0.00 0.99 0.03 90 1000.3
20260506085029 12 0 0.0 0.0 0.00 0.99 0.03 90 1000.2
20260506084023 12 0 0.0 0.0 0.00 0.99 0.03 89 1000.2
20260506083023 12 0 0.0 0.0 0.00 0.99 0.03 90 1000.1
20260506082041 12 0 0.0 0.0 0.00 0.99 0.03 90 1000.1
20260506082033 12 0 0.0 0.0 0.00 0.99 0.03 90 1000.1
20260506081024 12 0 0.0 0.0 0.00 0.99 0.03 90 1000.0
20260506073040 12 0 0.0 0.0 0.00 0.99 0.03 93 1000.1
20260506073031 11 0 0.0 0.0 0.00 0.99 0.03 94 1000.1
20260506072035 11 0 0.0 0.0 0.00 0.99 0.03 94 1000.1
20260506072030 11 0 0.0 0.0 0.00 0.99 0.03 94 1000.1
20260506071053 11 0 0.0 0.0 0.00 0.99 0.03 94 1000.1
20260506071048 11 0 0.0 0.0 0.00 0.99 0.03 94 1000.2
20260506062024 11 0 0.0 0.0 0.00 0.99 0.03 95 1000.1
20260506061037 11 0 0.0 0.0 0.00 0.99 0.03 95 1000.1
20260506061031 10 0 0.0 0.0 0.00 0.99 0.03 94 1000.1
20260506051038 10 0 0.0 0.0 0.00 0.99 0.03 94 999.9
20260506051032 10 0 0.0 0.0 0.00 0.99 0.03 94 1000.0
20260506045036 10 0 0.0 0.0 0.00 0.99 0.03 94 999.9
20260506045030 10 0 0.0 0.0 0.00 0.99 0.03 93 999.9
20260506044024 10 0 0.0 0.0 0.00 0.99 0.03 93 999.9
20260506043037 10 0 0.0 0.0 0.00 0.99 0.03 93 999.9
20260506043031 10 0 0.0 0.0 0.00 0.99 0.03 93 1000.0
20260506042030 10 0 0.0 0.0 0.00 0.99 0.03 93 1000.0
20260506041035 10 0 0.0 0.0 0.00 0.99 0.03 93 1000.0
20260506041029 10 0 0.0 0.0 0.00 0.99 0.03 93 1000.1
20260506040036 10 0 0.0 0.0 0.00 0.99 0.03 93 1000.1
20260506040030 10 0 0.0 0.0 0.00 0.99 0.03 94 1000.2
20260506035032 10 0 0.0 0.0 0.00 0.99 0.03 94 1000.2
20260506034041 10 0 0.0 0.0 0.00 0.99 0.03 94 1000.3
20260506033034 10 0 0.0 0.0 0.00 0.99 0.03 94 1000.4
20260506032029 10 0 0.0 0.0 0.00 0.99 0.03 95 1000.5
20260506031027 10 0 0.0 0.0 0.00 0.99 0.03 95 1000.5
20260506030035 10 0 0.0 0.0 0.00 0.99 0.03 95 1000.5
20260506025031 10 0 0.0 0.0 0.00 0.99 0.03 95 1000.4
20260506024035 10 0 0.0 0.0 0.00 0.99 0.03 95 1000.4
20260506024030 11 0 0.0 0.0 0.00 0.99 0.03 95 1000.4
20260506023036 11 0 0.0 0.0 0.00 0.99 0.03 95 1000.4
20260506023029 11 0 0.0 0.0 0.00 0.99 0.03 95 1000.3
20260506022035 11 0 0.0 0.0 0.00 0.99 0.03 95 1000.3
20260506022029 11 0 0.0 0.0 0.00 0.99 0.03 96 1000.3
20260506021034 11 0 0.0 0.0 0.00 0.99 0.03 96 1000.3
20260506021028 11 0 0.0 0.0 0.00 0.99 0.03 95 1000.3
20260506020029 11 0 0.0 0.0 0.00 0.99 0.03 95 1000.3
20260506015042 11 0 0.0 0.0 0.00 0.99 0.03 95 1000.3
20260506015036 11 0 0.0 0.0 0.00 0.99 0.03 95 1000.3
20260506014039 11 0 0.0 0.0 0.00 0.99 0.03 95 1000.3
20260506014033 11 0 0.0 0.0 0.00 0.99 0.03 96 1000.4
20260506013040 11 0 0.0 0.0 0.00 0.99 0.03 96 1000.4
20260506013033 11 0 0.0 0.0 0.00 0.99 0.03 96 1000.6
20260506012036 11 0 0.0 0.0 0.03 0.99 0.03 96 1000.6
20260506012031 11 0 0.0 0.0 0.03 0.99 0.03 96 1000.7
20260506010035 11 0 0.0 0.0 0.03 0.99 0.03 97 1000.8
20260506010030 11 0 0.0 0.0 0.03 0.99 0.03 97 1000.9
20260506005039 11 0 0.0 0.0 0.03 0.99 0.03 97 1001.0
20260506004034 11 0 0.0 0.0 0.03 0.99 0.03 97 1001.0
20260506004029 11 0 0.0 0.0 0.03 0.99 0.03 97 1001.1
20260506003036 11 0 0.0 0.0 0.03 0.99 0.03 97 1001.1
20260506003030 11 0 0.0 0.0 0.03 0.99 0.03 98 1001.1
20260506002041 11 0 0.0 0.0 0.03 0.99 0.03 98 1001.1
20260506002034 11 0 0.0 0.0 0.00 0.99 0.00 98 1001.3
20260506001029 10 0 0.0 0.0 0.00 0.99 0.00 98 1001.4
20260506000036 10 0 0.0 0.0 0.00 0.99 0.00 98 1001.4
20260506000028 10 0 0.0 0.0 0.00 0.99 0.00 97 1001.4
20260505235041 10 0 0.0 0.0 0.00 0.99 0.00 97 1001.4
20260505235033 10 0 0.0 0.0 0.00 0.99 0.00 98 1001.4